Orbital Elements at Epoch 2459200.5 (2020-Dec-17.0) TDB
Reference: JPL 22 (heliocentric ecliptic J2000)
Element | Value | Uncertainty (1-sigma) | Units |
e | .05902067927291553 | 3.8681e-08 | |
a | 2.472635379171055 | 1.0611e-08 | au |
q | 2.326698759498137 | 9.1277e-08 | au |
i | 4.613523304460053 | 3.2985e-06 | deg |
node | 135.7732618782247 | 6.2183e-05 | deg |
peri | 28.36686453318566 | 7.5257e-05 | deg |
M | 117.9290969529611 | 4.3443e-05 | deg |
tp | 2458735.281456292461 (2019-Sep-08.78145629) | 0.00017049 | TDB |
period | 1420.164150002073 3.89 | 9.1421e-06 2.503e-08 | d yr |
n | .2534918234624318 | 1.6318e-09 | deg/d |
Q | 2.618571998843974 | 1.1238e-08 | au |
|
| | Orbit Determination Parameters
Additional Information
|